Other Surface Observations
Issued by NWS

Home | Current Version | Previous Version | Text Only | Print | Product List | Glossary On
Versions: 1 2 3 4 5 6 7 8 9 10 11 12 13 14 15 16 17 18 19 20 21 22 23 24 25 26 27 28 29 30 31 32 33 34 35 36 37 38 39 40 41 42 43 44 45 46 47 48 49 50
000
SXUS52 KTAE 300718
OSOTAE
OSOTAE
North Florida/South Alabama/Southwest Georgia Weather Roundup
National Weather Service Tallahassee Florida
200 AM EST FRI JAN 30 2015

Note: "fair" indicates few or no clouds below 12,000 feet with no
significant weather and/or obstructions to visibility.

!FLZ017-115-028-034-025-300800
...North Florida...

CITY           SKY/WX    TMP DP  RH WIND       PRES   REMARKS
TALLAHASSEE    CLEAR     43  37  79 CALM      30.17F
APALACHICOLA   CLEAR     62  55  77 SW7       30.19F
PERRY            N/A     41  40  99 CALM      30.19F FOG
CROSS CITY       N/A     41  39  93 CALM      30.20F
JACKSONVILLE   MOCLDY    45  42  89 SW3       30.18F
$$

!FLZ112-006-005-002-011-300800
...Florida Panhandle...

CITY           SKY/WX    TMP DP  RH WIND       PRES   REMARKS
MARIANNA       PTCLDY    51  51 100 S6        30.16S
BONIFAY        CLOUDY    49  48  97 CALM      30.17S
PANAMA CITY NW FAIR      56  53  90 S3        30.16F
TYNDALL AFB    PTCLDY    62  58  89 SW10      30.18F
TYND DRONE APT FAIR      62  59  90 SW8G15    30.17F
DE FUNIAK SPR  CLOUDY    57  56  97 SW6       30.17S
EGLIN AFB      PTCLDY    64  59  85 W6        30.16F
DESTIN         MOCLDY    65  60  84 SW8       30.17F
HURLBURT       PTCLDY    63  57  80 SW6       30.16F
CRESTVIEW      MOCLDY    60  57  89 W7        30.19S
PENSACOLA      PTCLDY    61  57  87 W12       30.18S
$$

!ALZ063-066-300800
...South Alabama...

CITY           SKY/WX    TMP DP  RH WIND       PRES   REMARKS
DOTHAN         MOCLDY    54  52  93 W8        30.19R
OZARK CAIRNS   PTCLDY    51  49  92 SW2       30.16S
FT RUCKER HELI PTCLDY    55  52  89 W5        30.15F
RUCKER HELI 3  FAIR      54  53  95 W6        30.18S
RUCKER HELI 2  FAIR      53  51  93 W3        30.16S
FLORALA APT    PTCLDY    57  55  93 CALM      30.19R
ANDALUSIA      CLEAR     60  54  80 NW9       30.18S
TROY           PTCLDY    56  52  86 SW5       30.16F
EUFALA         FAIR      57  52  83 W5        30.13S
MOBILE         MOCLDY    55  54  96 W5        30.22R
$$

!GAZ120>161-300800
...Southwest and South Central Georgia...

CITY           SKY/WX    TMP DP  RH WIND       PRES   REMARKS
THOMASVILLE    FAIR      54  48  82 SW6       30.17S
BAINBRIDGE     PTCLDY    54  50  87 CALM      30.17S
MOODY AFB      CLOUDY    51  46  86 S9        30.15F
VALDOSTA       CLEAR     47  45  93 S3        30.17F
MOULTRIE       PTCLDY    50  45  81 SW3       30.16F
BLAKELY        CLOUDY    54  52  94 CALM      30.16S
ALBANY         CLOUDY    52  46  80 SW7       30.16F
TIFTON         FAIR      50  41  71 SW6       30.14S
FITZGERALD     PTSUNNY   53  40  62 SW7       30.15F
CORDELE        CLOUDY    54  46  74 SW10      30.14S
AMERICUS       CLOUDY    54  50  87 SW6       30.14S
HOMERVILLE     FAIR      50  43  76 SW3       30.16F
$$

!GMZ750-755-770-775-300800
...Coastal and Buoy Obs...

STATION/POSITION TIME  TEMP    WIND        PRES    VSBY  WAVE
                       AIR SEA DIR/SP/G                  HT/PER
                 (UTC) (F)     (DEG/KT/KT) (MB)    (MI)  (FT/S)
KEATON BEACH     0700   56     190/  4/  5 1022.7F
CEDAR KEY        0700   57     300/  4/  5 1023.1S
C TOWER          0700   63     230/ 13/ 14 1022.4F
APALACHICOLA BUO 0700   65 67  240/ 12/ 14 1022.9F         1/ 3
PANAMA CITY BUOY 0615   66 69  250/ 12/ 14 1023.2F         2/ 5
MOBILE BUOY      0638   68 68  270/ 17/ 21 1023.4F         2/ 3
ORANGE BCH AL BU 0700   64 62  250/ 16/ 19 1021.3F         2/ 5
$$



USA.gov is the U.S. government's official web portal to all federal, state and local government web resources and services.